Location: Ch�risy
(50.2331°N, 2.9131°E)
Time: 18:03:53
(UTC+00:00)

SJ 16-02 - Pass Details

Date: 17 January 2021
Orbit: 606 x 615 km, 75.0° (Epoch: 27 February)

Event Time Altitude Azimuth Distance (km) Brightness Sun altitude
Rises 18:05:01 0° 162° (SSE) 2,868 4.7 -16.7°
Reaches altitude 10° 18:07:41 10° 146° (SE) 1,967 3.7 -17.1°
Enters shadow 18:08:41 14° 136° (SE) 1,696 3.3 -17.3°
